Regional Weather Roundup
Issued by NWS Jackson, KY

Home | Current Version | Previous Version | Text Only | Print | Product List | Glossary Off
Versions: 1 2 3 4 5 6 7 8 9 10 11 12 13 14 15 16 17 18 19 20 21 22 23 24 25 26 27 28 29 30 31 32 33 34 35 36 37 38 39 40 41 42 43 44 45 46 47 48 49 50

000
ASUS43 KJKL 231310
RWRJKL

EAST KENTUCKY HOURLY WEATHER ROUNDUP
NATIONAL WEATHER SERVICE JACKSON KY
900 AM EDT SAT MAY 23 2015

NOTE: "FAIR" INDICATES FEW OR NO CLOUDS BELOW 12,000 FEET WITH
NO SIGNIFICANT WEATHER AND/OR OBSTRUCTIONS TO VISIBILITY.

* THESE REPORTS ARE NOT UNDER NWS QUALITY CONTROL AND MAY NOT
  REPORT WEATHER SUCH AS PRECIPITATION AND FOG.

KYZ079-080-083-085-087-088-110-112-115-119-120-231400
...EASTERN KENTUCKY...

CITY           SKY/WX    TMP DP  RH WIND       PRES   REMARKS
JACKSON        PTSUNNY   55  46  71 CALM      30.42R
LONDON         PTSUNNY   57  47  69 SE5       30.41R
SOMERSET*      CLOUDY    55  50  82 CALM      30.42R
MONTICELLO*    PTSUNNY   60  53  77 CALM      30.43R
MIDDLESBORO*   PTSUNNY   53  49  85 CALM      30.44R
HARLAN APT*    MOSUNNY   52  48  87 CALM      30.43R
HAZARD APT*    SUNNY     55  52  88 CALM      30.42R
BLACK MTN*       N/A     55  45  67 E2          N/A
PIKEVILLE APT* SUNNY     54  48  82 S5        30.43R
BIG SANDY*     PTSUNNY   59  50  72 S5        30.43R
MOREHEAD APT*  PTSUNNY   61  50  67 S3        30.42R
$$

KYZ035-036-041-042-044-050-067-078-099-231400
...CENTRAL KENTUCKY...

CITY           SKY/WX    TMP DP  RH WIND       PRES   REMARKS
MT STERLING*   CLOUDY    61  54  77 CALM      30.41R
FLEMING/MASON* SUNNY     57  52  82 CALM      30.41R
DANVILLE*      MOSUNNY   61  52  72 CALM      30.41R
RICHMOND*      MOSUNNY   61  50  67 CALM      30.40R
LEXINGTON      CLOUDY    61  54  77 CALM      30.40R
FRANKFORT      CLOUDY    59  51  75 CALM      30.38R
$$

KYZ091>093-OHZ055-061-077-WVZ005-015-034-035-042-231400
...SOUTHERN OHIO/WEST VIRGINIA...

CITY           SKY/WX    TMP DP  RH WIND       PRES   REMARKS
COVINGTON      CLOUDY    61  50  67 E3        30.39R
COLUMBUS       MOSUNNY   57  37  47 SE8       30.41R
DAYTON         PTSUNNY   60  41  49 SE12      30.40R
WILMINGTON     CLOUDY    58  40  51 E6        30.39R
HUNTINGTON     CLOUDY    55  49  80 S3        30.39S
CHARLESTON     PTSUNNY   53  51  93 CALM      30.41R
PINEVILLE*     PTSUNNY   53  50  90 MISG      30.49S
BECKLEY        SUNNY     58  42  55 S3        30.45R
BLUEFIELD      MOSUNNY   59  39  47 CALM      30.47R
$$

VAZ002-007-008-TNZ017-027-036-066-071-231400
...SOUTHWEST VIRGINIA/EAST TENNESSEE...

CITY           SKY/WX    TMP DP  RH WIND       PRES   REMARKS
WISE*          MOSUNNY   61  41  48 CALM      30.46R
JONESVILLE*    MOSUNNY   55  48  76 CALM      30.45R
ABINGDON*      MOSUNNY   61  45  55 E9        30.44R
BRISTOL        PTSUNNY   58  46  64 VRB3      30.43R
KNOXVILLE      PTSUNNY   56  49  77 E3        30.39R
OAK RIDGE      CLOUDY    58  51  78 CALM      30.42R
CROSSVILLE     PTSUNNY   60  47  61 VRB3      30.40R
NASHVILLE      CLOUDY    63  54  72 CALM      30.37R
$$

...KEY TO REMARKS...
VSB - VISIBILITY IN MILES
WCI - WIND CHILL INDEX
HX  - HEAT INDEX

$$


USA.gov is the U.S. government's official web portal to all federal, state and local government web resources and services.